Regional Weather Roundup
Issued by NWS

Home | Current Version | Previous Version | Text Only | Print | Product List | Glossary On
Versions: 1 2 3 4 5 6 7 8 9 10 11 12 13 14 15 16 17 18 19 20 21 22 23 24 25 26 27 28 29 30 31 32 33 34 35 36 37 38 39 40 41 42 43 44 45 46 47 48 49 50
000
ASUS44 KEWX 261402
RWRTX
SOUTH TEXAS REGIONAL WEATHER ROUNDUP
NATIONAL WEATHER SERVICE AUSTIN/SAN ANTONIO TX
900 AM CDT SAT JUL 26 2014

NOTE: "FAIR" INDICATED FEW OR NO CLOUDS BELOW 12,000 FEET WITH NO
SIGNIFICANT WEATHER AND/OR OBSTRUCTIONS TO VISIBILITY.

* - THESE STATIONS ARE NOT NWS OR FAA STATIONS...AND ARE NOT SUBJECT
    TO NWS AND FAA QUALITY CONTROL.

TXZ171-172-183>190-261500-
TEXAS HILL COUNTRY AND EDWARDS PLATEAU

CITY           SKY/WX    TMP DP  RH WIND       PRES   REMARKS
JUNCTION       SUNNY     78  69  73 CALM      30.06R
*LLANO         SUNNY     79  72  78 SE5       30.08R
BURNET         SUNNY     79  70  74 S10       30.08R
*HORSESHOE BAY SUNNY     80  69  70 S7        30.06R
*KERRVILLE     SUNNY     76  71  84 S9        30.08R
*FREDERICKSBRG SUNNY     78  68  71 S10       30.07R
*ROCKSPRINGS   SUNNY     75  70  83 SE12      30.10R
*BOERNE STAGE  SUNNY     77  68  73 S8        30.08R
*CASTROVILLE   SUNNY     79  70  73 SE6       30.06R
HONDO          SUNNY     78  71  79 SE9       30.06R
*UVALDE        SUNNY     78  72  81 E8        30.04R
DEL RIO        SUNNY     81  68  64 E15       29.99R
LAUGHLIN AFB   NOT AVBL
CARRIZO SPRGS  SUNNY     79  70  73 SE6       29.99R
$$

TXZ173-191>194-202-209-217>225-228-261500-
CENTRAL AND SOUTH CENTRAL TEXAS

CITY           SKY/WX    TMP DP  RH WIND       PRES   REMARKS
GEORGETOWN     SUNNY     81  73  78 S10       30.07R
AUSTIN/BERGSTM MOSUNNY   81  74  79 S14       30.04R
AUSTIN/MABRY   SUNNY     80  74  81 S5        30.05R
*AUSTIN/EXEC   SUNNY     81  73  78 S9        30.05R
*LAGO VISTA    SUNNY     79  72  78 S8        30.07R
SAN MARCOS     SUNNY     81  72  74 MISG      30.07R
NEW BRAUNFELS  SUNNY     81  73  76 S10       30.04R
RANDOLPH AFB   SUNNY     80  72  77 S8        30.06R
PT SAN ANTONIO SUNNY     80  72  77 S8        30.04R
SAN ANTONIO    MOSUNNY   80  72  76 S9        30.05R
STINSON FIELD  SUNNY     80  73  79 SE7       30.03R
*PLEASANTON    SUNNY     81  72  74 SE13      30.03R
*LA GRANGE     MOSUNNY   82  79  91 S7        30.04R HX  92
*GIDDINGS      MOSUNNY   80  74  79 SW8G16    30.09R
*GONZALES      PTSUNNY   82  77  84 S7        30.05R HX  90
$$

TXZ163>164-176>182-195>201-210>213-226-227-235-261500-
SOUTHEAST TEXAS

CITY           SKY/WX    TMP DP  RH WIND       PRES   REMARKS
COLLEGE STN    PTSUNNY   79  76  90 S9        30.06R
*BRYAN         MOSUNNY   81  76  85 S9        30.06R
*CALDWELL      PTSUNNY   79  79 100 S7        30.09R
*CROCKETT      SUNNY     81  81 100 S5        30.09R HX  91
*BRENHAM       CLOUDY    78  76  94 CALM      30.06R
HUNTSVILLE     SUNNY     82  76  81 S8G17     30.06R
CONROE         PTSUNNY   83  77  82 SW7       30.07R HX  92
HOUSTON BUSH   PTSUNNY   83  77  82 S6        30.06R HX  92
HOUSTON HOBBY  MOSUNNY   84  77  79 S6        30.06R HX  94
*HOUSTON SW AP SUNNY     80  80  98 CALM      30.06R HX  90
PEARLAND       SUNNY     83  77  82 CALM      30.08R HX  92
HOUSTON HOOKS  MOSUNNY   83  79  88 S3        30.06R HX  94
ELLINGTON FLD  PTSUNNY   84  75  74 S5        30.08R HX  92
SUGAR LAND     SUNNY     83  78  85 S7        30.06R HX  93
*HOUSTON EXEC  MOSUNNY   82  81  94 S8        30.07R HX  95
*CLEVELAND MUN SUNNY     80  77  92 SW3       30.07R FOG
*WHARTON       SUNNY     82  78  85 S5        30.06R HX  91
$$

TXZ214>216-236>238-261500-
THE UPPER TEXAS COAST

CITY           SKY/WX    TMP DP  RH WIND       PRES   REMARKS
*ORANGE        SUNNY     83  79  85 CALM      30.08R HX  94
PORT ARTHUR    SUNNY     85  76  74 SW6       30.06R HX  94
GALVESTON      MOSUNNY   87  77  72 S10       30.07R HX  99
ANGLETON       SUNNY     83  78  85 S7        30.06R HX  93
*BAY CITY      SUNNY     86  83  92 S6        30.06R HX 105
PALACIOS       PTSUNNY   85  77  77 SW10      30.05R HX  95
$$

TXZ229>234-239>247-261500-
TEXAS COASTAL BEND AND RIO GRANDE PLAINS

CITY           SKY/WX    TMP DP  RH WIND       PRES   REMARKS
VICTORIA       MOSUNNY   85  77  77 S10       30.05R HX  95
*BEEVILLE      PTSUNNY   82  76  83 S13       30.03R
ROCKPORT       PTSUNNY   84  77  79 S12G20    30.04R HX  94
*PORT ARANSAS  SUNNY     83  78  86 S10       30.03R HX  92
*PORT LAVACA   MOSUNNY   82  77  84 S10       30.05R HX  91
*INGLESIDE     PTSUNNY   86  76  71 S14G21    30.03R HX  96
CORPUS CHRISTI MOSUNNY   83  77  82 S13       30.03R HX  92
CORPUS NAS     MOSUNNY   84  78  82 S15       30.02R HX  95
*ROBSTOWN      NOT AVBL
ALICE          MOSUNNY   83  76  79 S12G21    30.01R HX  91
KINGSVILLE NAS SUNNY     85  78  80 S15       30.02R HX  96
COTULLA        SUNNY     81  71  71 SE10      30.01R
*FAITH RANCH   SUNNY     79  68  69 SE8       29.99R
LAREDO         SUNNY     82  73  74 S14       30.02R
$$

TXZ248>255-261500-
DEEP SOUTH TEXAS

CITY           SKY/WX    TMP DP  RH WIND       PRES   REMARKS
BROWNSVILLE    SUNNY     85  78  80 SE14      30.02R HX  96
PORT ISABEL    SUNNY     86  76  71 S14       30.01R HX  96
*SOUTH PADRE   SUNNY     84  77  79 S8        30.02R HX  94
HARLINGEN      MOSUNNY   86  77  74 S15       30.00R HX  97
*HEBBRONVILLE  SUNNY     80  73  79 SE14G20   30.02S
MCALLEN        PTSUNNY   84  77  79 SE16      30.00R HX  94
*WESLACO       MOSUNNY   84  75  73 S10       30.01R HX  92
FALFURRIAS     MOSUNNY   69  69 100 SE8       30.01S
EDINBURG       PTSUNNY   86  76  71 SE14      30.01R HX  95
*ZAPATA        SUNNY     83  71  67 SE14      29.99R
$$

TXZ213>215-236>238-242>244-246-247-251-254-255-261500-
CMAN STATIONS

STATION/POSITION TIME  TEMP    WIND        PRES    WAVE
                       AIR SEA DIR/SP/G            HT/PER
                 (UTC) (F)     (DEG/KT/KT) (MB)    (FT/S)
SABINE PASS      1319   85 87  230/  6/ 11 1017.6
SEA RIM ST PARK  1300   84     230/  9/ 11 1018.0
NORTH JETTY/GLS  1300   86 91  240/ 11/ 13   N/A
EAGLE POINT      1300   83 87  240/  6/  8 1017.7
MORGANS POINT    1319   83 91  230/  3/  5 1017.4
MISSION/ARANSAS  1300   81     180/ 10     1017.0
PORT O`CONNOR    1300          190/  9/ 12   N/A
PORT ARANSAS     1300   81 84  180/ 16/ 17 1016.6
MALAQUITE BEACH  1300   80 82  160/ 10/ 12 1016.0
BAFFIN BAY       1300   81 79  170/ 11/ 12 1016.4
PORT ISABEL      1300   84 81  160/ 13/ 17 1016.4
$$

GMZ080-GMZ150>470-261500-
OFFSHORE BUOY REPORTS

STATION/POSITION TIME  TEMP    WIND        PRES    WAVE
                       AIR SEA DIR/SP/G            HT/PER
                 (UTC) (F)     (DEG/KT/KT) (MB)    (FT/S)
20 E GALVESTON   1400   85     220/ 10       N/A
90 E PT ARANSAS  1400   84 83  170/ 10/ 12 1018.2    3/ 5
35 NE PT MANSFLD 1300   83 81  190/ 14/ 16 1015.9    3/ 5
200 E PT ISABEL  1300   84 85  190/  8/ 10 1017.3    2/ 3
$$


USA.gov is the U.S. government's official web portal to all federal, state and local government web resources and services.